Location: Newark
(44.9333°N, 0.5667°E)
Time: 04:42:00
(UTC+00:00)

Oscar 11 - Pass Details

Date: 28 February 2020
Orbit: 612 x 626 km, 97.6° (Epoch: 04 April)

Event Time Altitude Azimuth Distance (km) Brightness Sun altitude
Rises 19:08:27 0° 207° (SSW) 2,899 10.8 -15.9°
Reaches altitude 10° 19:11:19 10° 227° (SW) 1,998 10.3 -16.4°
Maximum altitude 19:14:12 17° 269° (W) 1,579 10.2 -16.9°
Drops below altitude 10° 19:17:06 10° 311° (NW) 2,007 10.5 -17.4°
Sets 19:19:59 0° 331° (NNW) 2,918 11.0 -17.9°
